Regional Weather Roundup
Issued by NWS

Home | Current Version | Previous Version | Text Only | Print | Product List | Glossary Off
Versions: 1 2 3 4 5 6 7 8 9 10 11 12 13 14 15 16 17 18 19 20 21 22 23 24 25 26 27 28

000
ASUS45 KCYS 250410
RWRWY

WYOMING REGIONAL WEATHER ROUNDUP
NATIONAL WEATHER SERVICE CHEYENNE WY
1000 PM MDT FRI OCT 24 2014

NOTE:  "FAIR" INDICATES FEW OR NO CLOUDS BELOW 12,000 FEET
WITH NO SIGNIFICANT WEATHER AND/OR OBSTRUCTIONS TO VISIBILITY.

WYZ001-250500-
YELLOWSTONE NATIONAL PARK

CITY           SKY/WX    TMP DP  RH WIND       PRES   REMARKS
LK YELLOWSTONE   N/A     30  24  78 NW3       30.28
W YELLOWSTONE  NOT AVBL

$$
WYZ002>013-054>058-071-098>099-250500-
NORTHERN WYOMING

CITY           SKY/WX    TMP DP  RH WIND       PRES   REMARKS
JACKSON        CLEAR     43  27  52 CALM      30.22R
CODY           CLEAR     39  32  75 S5        30.12
GREYBULL       CLEAR     51  34  52 W10       30.07R
WORLAND        CLEAR     48  32  53 NE7       30.08R
SHERIDAN       CLEAR     36  30  79 CALM      30.13R
BUFFALO        CLEAR     45  32  60 SW3       30.16R
GILLETTE       PTCLDY    35  29  78 CALM      30.13R
HULETT         FAIR      52  28  40 NE6       30.14F
NEWCASTLE      FAIR      45  32  61 NE5       30.12

$$
WYZ014>020-022>026-101>103-250500-
CENTRAL WYOMING

CITY           SKY/WX    TMP DP  RH WIND       PRES   REMARKS
BIG PINEY      PTCLDY    35  20  54 CALM      30.28R
PINEDALE       PTCLDY    32  25  74 NW5       30.29S WCI  27
DUBOIS         FAIR      43  21  42 NW13      30.23S
LANDER         CLEAR     59  18  20 CALM      30.13S
RIVERTON       CLEAR     54  20  26 NW8       30.15R
CASPER         CLEAR     53  20  27 SW12      30.15R
DOUGLAS        CLEAR     54  20  26 NW3       30.14R

$$
WYZ021-027>030-104>119-250500-
SOUTHERN WYOMING

CITY           SKY/WX    TMP DP  RH WIND       PRES   REMARKS
EVANSTON       CLEAR     57  22  25 S3        30.27S
KEMMERER       PTCLDY    46  23  39 N5        30.30R
FORT BRIDGER   FAIR      56  22  26 W9        30.30S
ROCK SPRINGS   PTCLDY    50  29  44 S7        30.27R
DIXON          FAIR      44  32  63 E6        30.32
RAWLINS        CLEAR     51  23  33 SW6       30.28R
SARATOGA       FAIR      41  28  60 SE3       30.32R
LARAMIE        CLEAR     49  22  34 S6        30.31S
CHEYENNE       CLEAR     52  27  38 W5        30.24R
TORRINGTON     CLEAR     57  28  33 W7        30.11R
PINE BLUFFS    FAIR      46  30  53 CALM      30.20R

$$



USA.gov is the U.S. government's official web portal to all federal, state and local government web resources and services.